Wind_Speed
16 17 17 16 16 16 16 16 16 16 14 13 13 13 15 17 17 17 17 17 18 19 19 20 19 19 20 20 20 20 20 20 20 20 21 21 21 21 22 22 22 22 22 22 22 23 23 23 24 24 24 25 25 25 26 27 28 29 29 30 30 31 32 33 34 35 36 36 37 38 39 40 41 41 42 42 42 43 43 43 43 43 44 45 45
13 15 17 16 15 16 16 15 14 13 13 12 12 13 14 15 15 16 16 17 18 18 18 18 18 18 19 19 18 19 19 19 19 19 19 19 20 20 20 20 20 20 20 20 20 21 21 22 22 22 22 23 23 23 24 25 26 27 27 28 29 29 30 31 32 33 34 35 36 37 38 39 40 41 41 42 42 43 43 43 44 44 44 45 45
13 14 16 14 14 15 15 14 13 13 13 13 13 13 14 14 15 15 15 16 16 16 16 15 15 16 16 17 17 18 18 19 19 19 18 18 18 18 18 18 18 18 18 19 19 19 20 20 21 21 22 22 22 23 24 24 25 25 26 26 27 28 29 30 30 31 32 33 34 35 36 37 39 40 40 41 42 42 43 43 44 44 45 46 45
12 13 13 13 14 14 14 13 13 13 13 13 13 13 13 13 13 13 13 14 14 13 13 13 14 15 16 16 17 17 17 17 17 17 16 16 16 16 16 16 16 17 17 18 18 18 19 20 20 21 22 22 23 23 24 24 25 25 26 26 27 27 28 29 29 30 30 31 32 34 35 36 37 38 39 40 40 41 42 43 43 43 44 45 45
11 12 13 13 14 14 13 13 12 12 12 12 12 12 12 12 12 11 12 12 12 12 12 13 15 15 15 15 15 15 15 15 15 15 15 14 15 15 15 16 16 16 17 17 18 19 19 20 21 21 22 23 23 24 24 25 25 26 27 27 27 28 28 29 29 30 30 30 31 33 34 35 36 37 37 38 39 40 41 41 42 42 43 44 44
11 12 13 12 12 12 12 12 11 11 11 11 11 11 11 10 10 10 11 11 11 12 12 14 14 14 14 13 13 13 13 13 13 13 14 14 14 15 15 16 16 16 17 18 19 19 20 21 22 23 23 24 25 26 26 27 27 28 29 29 29 29 30 30 30 30 31 31 32 33 33 34 35 35 36 36 37 39 39 40 40 41 41 42 43
12 11 11 11 10 11 10 10 10 10 10 9 9 9 9 8 8 9 10 11 11 12 12 13 13 12 11 11 11 11 12 12 12 13 14 14 15 15 16 16 17 17 18 19 20 21 22 23 24 25 26 26 27 28 29 29 30 31 31 32 32 32 32 32 32 32 33 33 34 34 34 34 35 35 35 35 36 38 38 38 39 40 40 41 42
10 10 10 10 10 10 10 9 9 9 8 7 7 7 7 8 8 9 10 10 10 11 11 11 10 10 9 10 10 11 11 12 12 13 14 15 16 17 18 18 19 20 21 22 23 23 24 25 26 27 27 28 29 29 30 30 31 32 33 33 33 33 34 34 34 35 35 36 36 35 35 36 36 36 37 36 36 37 38 38 38 38 39 40 40
10 9 9 10 10 10 9 7 7 6 5 5 6 6 6 8 8 9 9 9 8 9 9 9 8 8 9 10 10 11 12 12 13 14 15 16 17 19 20 20 21 22 24 25 25 25 26 26 27 28 29 29 30 31 31 32 32 33 35 35 34 35 35 35 36 36 37 37 38 37 36 37 37 38 38 38 37 38 39 38 38 38 38 39 39
10 10 10 10 9 8 6 5 5 4 4 5 5 5 6 7 7 7 7 7 6 7 7 7 8 8 9 10 11 12 12 13 14 15 16 18 19 21 21 21 23 23 25 26 26 26 26 27 28 29 30 30 31 31 31 32 33 34 35 36 36 36 36 36 37 38 38 39 39 38 38 38 39 40 40 40 39 39 40 40 39 38 38 38 38
10 10 9 8 7 5 4 4 4 4 5 6 5 5 6 6 6 5 5 5 5 6 7 7 8 9 10 11 12 13 14 15 16 17 18 19 21 22 22 22 23 23 24 26 27 27 27 28 29 30 31 31 31 31 32 32 32 34 35 36 36 36 37 37 37 38 39 39 39 39 40 40 41 41 42 41 40 40 41 41 40 40 39 39 38
9 8 7 6 5 4 3 3 3 4 5 5 3 4 4 4 3 4 4 5 6 6 7 7 8 10 11 12 13 15 16 17 18 19 20 21 22 22 22 22 23 24 25 27 28 28 28 28 29 29 30 31 31 31 32 32 32 33 34 35 36 37 37 37 38 39 39 40 40 40 41 41 42 42 43 42 41 42 43 43 42 42 41 40 40
6 6 5 5 4 3 3 3 4 4 4 3 2 2 2 2 2 3 4 5 6 7 8 9 10 11 12 14 15 17 18 18 19 20 21 22 22 23 23 24 25 26 27 27 28 28 27 27 28 28 29 30 30 31 31 32 32 33 34 35 36 37 37 38 38 39 40 40 41 41 42 42 42 43 42 42 43 43 44 44 44 43 43 42 41
5 5 4 3 3 2 2 3 3 2 2 1 1 1 1 2 2 3 5 5 6 8 9 10 11 13 14 16 17 19 20 20 21 21 22 23 24 25 25 26 26 26 27 27 27 27 27 26 26 27 28 29 30 31 32 32 33 34 35 35 36 37 38 38 39 40 40 41 42 43 43 43 44 44 42 42 43 44 44 45 45 45 44 44 43
4 3 3 2 2 2 3 3 2 1 1 1 1 1 2 2 3 4 5 7 8 9 11 12 14 15 17 18 19 21 22 22 22 23 23 24 25 26 27 27 26 26 26 27 26 26 26 26 27 28 29 30 31 32 33 34 35 36 37 37 38 39 40 40 40 41 42 42 43 43 44 44 45 45 44 44 44 44 44 45 45 45 45 45 44
4 3 3 2 3 3 3 3 2 2 2 1 1 2 3 3 4 6 7 8 10 11 13 14 16 17 19 20 21 22 22 23 23 24 25 26 27 27 27 27 26 26 26 26 26 26 27 28 29 30 31 32 34 35 36 37 38 39 40 40 41 42 42 43 43 43 44 44 44 45 45 46 46 45 45 47 46 46 45 45 45 45 45 45 45
3 3 4 4 4 4 4 4 4 3 3 2 2 3 4 5 6 7 9 10 12 13 15 16 17 19 20 22 22 23 23 24 24 25 26 26 27 27 27 27 27 26 25 26 27 28 29 31 32 33 34 36 37 38 40 41 42 43 43 44 44 45 45 46 46 46 46 46 46 46 47 47 47 47 47 49 48 48 47 47 46 45 45 45 45
4 5 5 5 5 5 5 5 4 3 3 3 4 4 5 6 8 9 11 12 14 15 17 18 19 20 22 22 23 23 24 25 25 26 26 26 26 27 28 28 27 26 26 27 29 30 32 33 35 36 38 39 41 42 43 44 45 46 47 47 47 48 48 48 48 48 48 48 48 48 48 49 48 49 49 50 50 50 49 49 49 48 47 46 45
6 7 7 7 6 6 5 4 4 4 4 4 5 6 7 8 9 11 12 14 16 18 19 20 21 21 22 22 23 24 25 25 25 26 26 27 28 28 29 28 27 27 28 30 31 33 34 36 38 39 41 42 44 45 46 47 47 48 48 49 49 50 50 49 49 49 49 49 50 49 50 50 49 50 51 51 51 51 51 51 50 50 50 49 48
8 8 8 8 7 6 5 4 4 5 5 5 6 7 8 10 11 13 15 16 18 19 20 20 21 21 22 22 23 24 25 25 26 27 28 29 29 29 28 27 28 29 31 32 34 36 37 39 40 42 43 44 45 46 47 47 48 48 49 49 50 50 50 50 49 50 50 50 51 51 51 51 50 51 51 51 52 52 53 52 52 52 51 51 51
9 9 8 7 6 5 5 5 5 5 6 7 7 8 10 12 13 15 16 17 18 19 20 20 21 21 22 23 23 24 25 26 27 28 30 30 30 30 29 29 30 31 33 35 36 38 40 41 43 44 45 46 46 47 47 47 48 48 49 49 49 50 50 50 50 50 51 51 51 52 52 51 51 52 52 52 52 53 53 53 53 52 52 53 53
9 8 8 7 6 5 5 6 6 6 7 8 9 11 12 14 15 16 17 18 19 20 20 20 20 21 22 23 24 25 26 27 28 29 30 31 30 30 30 31 32 34 35 37 39 40 42 43 45 46 46 46 46 47 47 47 48 48 48 49 50 50 51 51 52 52 52 52 52 52 52 52 52 52 51 52 52 53 53 54 54 53 53 53 53
9 8 8 7 6 5 5 6 6 7 9 10 11 13 14 15 16 17 18 19 20 20 20 20 21 22 23 24 25 26 27 28 29 30 31 31 31 31 31 32 34 36 37 39 41 42 43 45 46 46 46 46 46 46 47 47 48 49 50 51 52 53 53 54 55 55 55 55 54 54 53 53 52 52 51 51 51 51 52 53 53 54 53 53 54
8 8 8 7 6 6 6 7 8 9 10 12 13 14 15 15 16 17 18 19 19 19 20 21 22 23 24 25 26 27 28 29 30 31 31 32 32 32 32 34 35 37 38 40 41 42 43 44 45 45 45 45 45 46 47 49 50 52 54 55 56 57 57 58 58 58 58 58 57 56 55 54 53 52 52 51 50 50 51 52 52 53 54 53 53
8 7 7 7 6 6 7 8 9 10 11 13 13 14 15 16 17 17 18 19 19 20 21 23 24 24 25 26 27 28 29 30 31 31 32 32 33 33 33 34 36 37 38 39 41 42 42 43 43 43 44 45 46 48 51 53 55 56 56 56 56 56 56 57 57 57 57 58 57 57 56 55 54 53 53 52 52 51 51 51 52 53 53 53 52
7 7 7 7 7 8 8 9 10 11 12 13 14 14 15 16 17 18 19 20 21 22 23 24 25 26 27 28 29 30 31 31 32 32 32 33 33 33 33 34 35 36 37 38 40 41 41 41 42 43 44 47 50 52 52 52 52 51 50 50 50 49 50 50 50 51 51 52 52 52 52 52 53 53 54 54 54 53 53 52 53 53 53 53 52
7 7 7 7 7 8 8 9 10 12 13 13 14 15 16 16 18 19 20 21 22 23 24 25 26 27 28 29 30 31 31 32 32 33 33 33 33 33 33 33 34 35 36 38 39 40 40 41 43 45 47 49 50 49 47 46 45 44 44 44 44 44 44 44 44 45 45 45 45 45 46 47 48 49 51 52 54 54 55 55 54 54 54 53 51
7 7 7 7 7 7 8 10 11 12 13 13 14 15 16 18 19 21 21 22 23 24 25 27 28 29 30 30 31 32 32 33 33 33 33 33 33 33 33 33 34 35 36 37 38 39 41 42 44 47 47 46 44 42 41 41 42 42 43 43 43 43 43 42 40 39 37 36 36 36 38 39 40 42 44 47 50 52 54 55 56 56 56 54 53
6 7 6 6 7 7 9 10 11 12 13 14 15 16 18 20 21 22 22 23 25 26 27 28 30 30 31 31 32 33 33 34 34 34 33 33 33 33 33 34 35 36 36 37 38 40 41 43 45 45 43 40 38 38 38 39 40 41 42 42 43 42 41 39 36 34 32 32 32 32 33 34 34 36 37 40 43 46 50 52 54 56 57 56 54
6 6 6 6 6 8 9 10 11 12 13 14 16 18 20 21 21 22 23 24 26 27 28 30 31 32 31 32 33 33 34 34 34 34 33 33 33 33 33 34 35 36 37 38 39 41 42 44 44 40 36 34 34 35 37 38 40 41 42 42 42 41 38 35 33 32 31 31 32 33 34 35 35 35 35 36 38 40 44 48 50 52 54 55 54
5 5 5 5 6 8 9 10 11 12 13 15 17 19 21 21 22 22 24 25 27 28 30 32 32 32 32 33 34 34 33 34 34 34 33 32 32 33 34 35 36 37 37 38 39 41 43 45 41 33 31 32 33 35 37 39 40 41 41 42 41 39 37 35 33 31 29 29 30 31 33 34 36 36 36 37 37 37 39 42 46 48 49 52 53
5 6 5 6 7 8 9 10 11 12 14 16 18 20 21 22 22 23 24 26 28 29 31 33 33 32 33 34 34 34 34 34 34 33 33 32 33 34 35 36 36 37 37 38 40 42 45 45 38 30 29 32 34 36 39 40 41 41 41 40 39 38 36 34 29 26 24 24 25 26 27 29 31 33 35 37 38 38 37 38 41 45 46 48 49
6 6 6 7 7 8 9 10 11 12 14 16 18 20 21 22 22 23 25 26 28 30 32 33 33 33 34 34 34 34 34 34 34 33 33 33 34 35 36 36 37 37 38 39 41 44 46 45 37 30 30 33 35 39 42 42 41 41 40 39 37 34 31 27 22 20 21 22 24 26 26 27 27 28 30 33 37 38 38 37 37 39 42 44 46
6 6 7 7 8 8 9 10 11 12 14 16 18 20 21 22 23 24 25 27 29 31 32 33 33 34 35 34 34 34 34 34 34 33 33 33 34 35 36 37 37 37 38 40 43 45 47 45 38 33 33 35 38 41 42 42 41 41 39 38 34 29 25 22 20 21 21 23 27 28 29 29 28 27 27 28 34 38 38 37 36 35 36 39 43
7 7 7 8 8 9 9 10 11 13 14 16 17 19 21 22 23 24 25 27 29 31 32 34 34 35 35 34 34 35 35 34 34 33 33 34 35 36 36 37 37 38 40 41 43 45 47 45 38 35 35 36 38 39 41 41 41 40 38 35 29 23 22 22 23 24 24 26 28 29 28 28 27 27 27 26 29 35 38 37 36 34 32 33 37
7 7 7 8 9 9 9 10 11 13 15 16 17 18 20 22 23 24 25 27 29 31 33 34 34 35 35 34 35 35 34 34 34 34 34 34 35 36 37 37 37 39 41 42 44 45 47 43 37 34 34 35 36 37 40 39 39 39 37 31 24 21 21 22 25 26 26 26 26 27 26 26 26 26 26 25 25 29 34 36 35 34 32 30 31
7 7 7 8 9 10 10 11 12 13 15 16 17 18 20 21 23 24 25 27 29 31 33 34 34 35 35 34 35 35 35 35 34 34 35 35 36 36 37 37 38 39 41 44 45 46 47 43 36 33 33 33 34 35 37 36 38 39 35 28 22 21 22 23 25 25 25 24 23 24 25 26 27 25 23 23 24 24 27 32 34 33 32 30 29
6 7 7 8 9 10 11 12 12 14 15 16 17 18 19 21 22 24 25 27 29 32 34 34 35 35 34 34 35 35 35 35 35 35 35 36 36 36 37 37 38 40 42 45 47 48 48 43 36 33 32 32 32 32 33 34 36 38 34 27 21 21 22 22 22 22 22 22 21 23 25 26 25 22 21 21 22 21 22 26 30 32 31 30 29
6 7 7 8 9 10 11 12 13 14 15 15 17 18 19 20 22 23 25 28 30 32 34 34 35 35 34 34 35 35 35 35 35 35 36 36 36 36 37 37 38 40 43 45 47 48 49 44 37 35 34 33 32 30 32 33 34 35 33 27 21 19 19 19 19 19 20 21 23 24 26 26 23 20 19 18 17 18 18 20 24 27 29 29 28
7 7 8 8 9 10 11 12 13 14 14 15 16 17 19 20 21 23 25 28 30 32 34 34 34 34 34 34 35 35 36 36 36 36 36 36 36 36 36 37 37 40 42 45 47 49 50 46 39 37 36 34 32 29 30 32 31 33 32 28 24 20 19 18 17 17 19 23 25 23 23 23 20 18 16 12 11 12 14 15 18 22 24 27 28
8 8 9 9 9 10 11 12 13 13 14 15 16 16 18 20 22 23 25 28 30 32 33 33 34 34 34 34 35 35 36 36 36 36 36 36 36 36 36 36 37 39 42 44 46 48 49 46 41 38 37 35 32 29 29 30 30 31 31 27 24 21 18 17 17 18 20 23 23 21 20 18 16 15 11 6 4 6 8 8 13 17 21 24 26
9 9 10 10 10 10 11 12 12 13 13 14 15 16 18 20 22 24 25 27 29 32 33 33 34 33 33 34 35 36 36 36 36 35 35 35 35 35 35 35 36 38 41 43 45 47 48 46 43 40 38 37 34 30 28 29 29 29 29 26 24 21 18 17 18 19 19 20 20 19 19 19 17 15 10 5 4 2 2 3 8 14 18 21 23
10 10 10 11 11 11 11 11 12 12 13 14 15 17 19 20 22 23 25 27 29 31 32 33 33 33 33 34 35 36 36 36 36 35 34 35 35 35 34 34 35 37 39 41 44 46 47 46 43 41 40 39 37 32 28 27 27 27 27 25 23 21 20 20 20 18 17 18 18 17 18 21 21 18 14 9 8 7 5 4 6 11 16 19 22
11 11 11 11 11 11 11 11 12 12 13 15 16 17 19 20 22 23 24 26 28 31 32 32 33 32 33 34 35 36 36 36 35 35 34 35 35 35 34 34 34 35 38 40 42 45 46 45 43 42 41 39 37 34 28 24 25 26 26 25 22 21 21 20 18 17 17 18 17 16 18 23 24 22 19 17 15 14 11 11 9 11 16 20 22
12 12 11 11 11 12 12 12 12 13 13 15 16 17 18 19 21 22 24 26 28 30 31 32 33 32 33 35 35 36 36 36 35 35 35 35 35 35 34 34 34 35 37 39 41 43 45 45 44 42 41 40 38 34 27 23 24 25 24 22 21 20 19 19 18 17 18 19 18 17 19 23 25 22 21 21 18 16 15 14 12 14 18 20 21
13 13 12 12 12 12 13 13 13 13 13 14 15 16 17 19 20 21 23 26 28 30 32 33 33 32 32 34 35 35 36 35 35 35 35 35 35 34 34 33 33 34 36 38 40 42 44 45 44 44 43 42 40 34 26 24 26 26 24 22 21 20 19 19 19 19 19 21 21 19 20 24 24 21 21 22 19 17 17 15 14 16 17 18 19
15 14 14 13 12 13 13 13 13 13 13 14 15 16 17 19 20 21 24 26 28 30 31 32 32 31 32 33 34 35 36 35 35 35 35 35 35 34 34 33 33 34 35 37 39 41 43 45 45 45 46 45 44 38 30 25 25 26 25 25 23 22 20 18 18 18 19 22 22 19 19 22 21 18 20 21 19 17 16 14 14 15 15 17 18
15 15 14 13 13 13 13 13 14 14 14 14 15 16 17 18 20 21 23 25 27 29 30 31 31 29 31 33 34 35 36 36 35 35 35 35 35 34 33 33 33 33 34 36 38 39 42 44 45 46 47 47 46 43 37 29 25 25 25 25 24 23 21 19 18 17 17 19 21 19 16 18 18 16 17 19 18 15 14 14 15 15 15 15 17
17 16 15 14 14 14 14 14 14 15 15 15 15 15 16 17 19 20 22 24 26 28 29 31 30 29 31 33 33 35 36 36 36 35 35 34 34 34 33 33 33 33 33 34 36 38 40 42 44 45 46 47 46 45 42 37 32 29 28 26 24 24 22 20 18 16 15 16 18 19 15 15 15 14 15 17 18 16 14 15 18 19 17 14 16
18 17 17 16 15 14 14 15 15 15 15 15 15 15 16 16 18 19 21 23 25 27 29 30 29 28 30 32 33 35 36 36 36 35 35 34 34 34 33 33 33 33 33 33 35 36 38 40 43 44 45 46 46 45 43 39 36 34 33 30 28 27 24 21 18 15 13 12 14 17 14 12 13 14 14 15 17 16 14 16 20 23 19 15 17
18 17 17 16 16 15 15 15 16 16 15 15 15 15 16 16 17 18 20 22 24 26 28 29 28 28 30 31 32 34 35 37 37 36 35 34 34 34 33 33 32 32 32 32 33 35 37 38 41 42 44 45 45 45 43 41 38 36 35 34 33 32 28 23 20 18 16 14 14 14 12 12 14 16 15 15 16 15 14 17 21 22 17 13 13
Wind_Direction
253 253 244 237 238 243 246 243 244 247 248 249 244 239 237 241 247 252 257 261 264 266 267 269 271 273 273 273 274 276 277 277 277 277 278 278 278 277 277 277 277 278 278 279 279 279 279 279 279 279 278 278 278 277 277 276 274 274 273 272 272 271 270 269 268 268 267 266 265 264 264 264 263 262 262 261 261 260 260 259 259 259 258 257 256
252 249 240 233 236 239 239 237 237 242 244 245 242 240 241 244 249 254 258 261 264 266 268 271 273 275 275 276 277 278 279 279 279 279 280 279 278 277 279 280 281 281 282 282 282 282 283 283 282 282 282 281 280 280 278 277 276 276 275 274 274 273 272 271 270 269 268 268 267 266 265 265 264 263 262 261 261 260 260 259 258 258 258 257 257
242 238 237 228 227 229 229 231 234 238 241 241 242 243 247 250 254 257 260 262 264 267 271 275 277 277 277 278 279 279 279 280 282 281 281 280 281 283 285 285 286 286 287 286 286 287 287 286 286 286 285 284 283 282 281 280 279 279 278 276 275 274 273 272 271 270 269 269 268 267 267 266 265 264 263 262 261 260 259 258 258 257 257 257 257
229 224 225 216 216 222 224 229 231 234 238 241 245 249 253 255 258 260 262 263 266 271 276 278 277 277 278 279 280 280 281 282 283 283 284 286 288 290 290 290 290 290 290 289 289 289 288 287 287 287 286 285 285 284 283 282 282 281 280 278 277 276 275 274 273 272 270 269 269 267 266 265 264 264 264 263 263 262 261 260 259 258 258 258 257
217 213 213 211 214 220 223 228 231 235 240 244 249 252 253 255 257 259 262 266 270 275 277 276 275 276 279 281 282 283 283 284 286 288 292 294 294 294 293 293 292 292 291 290 290 289 287 287 287 286 285 285 284 284 283 283 282 281 280 279 278 277 276 275 274 273 272 270 268 267 266 265 264 263 263 263 263 262 262 261 260 259 259 258 257
210 209 211 214 217 221 224 228 232 236 241 246 251 252 253 254 258 263 267 271 275 276 275 275 276 279 282 285 286 287 289 292 294 297 298 298 297 296 294 293 293 293 292 291 290 290 289 289 289 289 288 288 287 286 286 286 285 284 283 282 281 280 279 278 276 275 273 271 269 268 267 266 265 264 263 263 263 262 261 261 261 260 259 259 258
209 210 215 219 224 227 227 228 232 236 241 245 249 253 256 261 266 269 271 274 277 277 277 278 281 286 291 293 292 295 298 300 301 300 299 299 297 295 294 294 295 295 294 292 292 293 294 294 293 293 293 292 292 291 290 290 289 288 286 285 285 284 282 281 280 278 276 274 272 271 270 269 268 266 264 262 262 261 260 259 259 259 259 259 258
210 212 218 223 230 232 232 233 236 238 238 242 246 254 263 267 269 271 273 276 279 279 280 283 290 297 301 301 302 304 303 302 301 300 300 299 298 297 297 298 299 298 297 297 297 298 298 298 297 296 296 295 294 294 293 292 291 290 288 287 286 285 284 283 281 280 278 277 275 274 273 272 271 269 267 264 262 262 261 259 258 257 257 257 257
213 216 221 226 230 232 233 232 233 234 236 242 249 259 266 270 272 273 277 280 282 282 287 294 304 309 308 308 307 305 302 301 301 301 301 302 301 300 301 303 303 303 302 301 301 301 301 301 300 299 298 297 296 295 294 293 292 291 290 289 288 286 285 283 282 280 279 278 277 275 274 272 271 270 268 265 263 263 262 261 259 257 256 256 256
217 219 223 225 226 225 221 216 218 227 241 249 255 266 270 273 276 277 282 286 288 291 299 309 314 313 310 308 304 302 302 302 303 303 304 303 302 301 303 304 304 304 303 302 302 302 302 301 299 299 298 297 297 296 295 294 293 292 291 290 289 287 286 284 282 280 279 277 277 275 273 271 269 268 267 266 265 264 263 262 260 259 257 256 255
218 217 219 220 218 210 204 206 218 234 249 256 263 270 270 274 277 282 291 295 300 303 308 314 315 311 308 306 304 305 305 305 305 304 304 302 301 301 303 304 303 303 302 302 302 302 301 300 299 299 299 299 298 298 296 295 293 292 291 291 290 288 286 285 283 280 279 277 276 274 272 270 269 268 267 267 265 264 263 262 261 260 258 257 255
209 205 203 204 199 193 200 217 232 243 254 264 268 267 268 274 283 294 302 307 311 311 311 313 312 311 310 308 308 307 306 306 305 304 303 302 302 303 305 306 305 305 303 303 302 302 302 302 301 301 300 300 299 298 297 296 294 293 291 290 289 288 286 285 283 281 280 278 276 274 272 271 269 268 268 267 265 263 262 262 261 260 259 257 256
185 178 178 183 182 189 210 234 238 244 257 264 257 260 271 291 306 308 314 319 317 313 313 315 315 314 312 310 308 307 306 306 306 306 306 306 307 308 309 308 307 305 304 303 303 303 302 301 300 299 298 297 297 297 296 296 295 294 293 292 290 288 287 284 282 281 279 278 276 274 272 271 269 268 267 266 264 262 262 261 259 259 258 257 255
165 163 167 172 179 191 206 230 236 231 238 237 228 272 311 329 330 325 325 323 318 317 318 318 318 315 313 310 309 309 309 309 310 311 312 311 311 311 310 308 306 305 303 303 302 301 300 299 298 297 296 295 295 295 295 295 295 294 293 292 291 290 288 286 283 281 279 277 275 274 273 272 270 268 267 265 264 263 262 261 259 258 257 256 255
158 157 161 162 169 169 182 208 209 165 157 131 87 15 347 344 341 336 331 327 325 323 322 320 320 318 315 314 313 314 314 315 315 315 315 314 312 311 309 308 307 305 303 302 301 299 299 298 297 297 296 296 296 296 295 295 295 294 293 292 291 290 289 287 285 282 280 277 275 274 273 271 270 269 268 266 264 262 261 260 259 258 256 255 254
160 154 152 145 144 147 157 162 138 118 115 98 72 34 9 355 347 341 335 331 329 326 325 323 322 319 317 316 317 318 319 319 318 318 316 314 312 310 308 307 306 304 302 301 301 300 299 298 298 298 298 297 297 296 295 295 294 293 292 291 290 289 288 286 284 282 280 278 276 273 272 270 269 269 267 266 264 262 261 259 258 257 256 254 253
152 137 128 124 124 129 131 123 113 110 102 78 48 28 14 358 348 343 338 335 331 328 325 323 321 319 320 321 322 322 321 320 319 317 315 313 311 309 308 306 305 303 301 301 300 300 300 300 300 299 299 298 297 296 295 294 293 292 291 290 288 287 285 284 282 281 279 277 275 273 271 270 269 268 265 264 264 263 262 260 258 256 255 254 252
122 115 113 114 115 117 115 109 107 101 81 59 40 23 9 355 347 343 340 336 332 328 324 323 323 325 326 326 325 323 321 320 318 317 315 313 310 308 306 305 303 302 301 300 300 300 300 301 300 300 300 299 298 297 296 294 293 292 290 289 288 286 284 283 281 279 277 276 274 273 272 270 270 268 265 264 263 262 261 260 259 256 254 253 251
111 112 113 115 115 113 108 106 100 85 67 50 31 14 1 352 347 343 339 335 331 327 326 327 329 330 328 325 323 322 321 320 319 318 316 313 311 308 306 303 302 301 301 301 301 301 301 301 301 301 300 300 298 297 296 294 293 292 290 289 287 286 284 282 280 279 277 276 275 274 272 271 270 267 265 264 262 261 260 259 259 257 254 252 250
112 114 114 114 111 109 107 99 83 68 53 35 19 6 357 350 346 342 338 334 331 329 329 331 331 329 326 325 325 325 325 324 323 321 319 315 312 309 306 303 301 301 301 302 302 302 302 302 302 302 302 301 300 298 297 295 293 292 290 288 287 285 284 282 281 279 277 276 275 274 273 272 270 267 266 264 262 260 259 258 257 257 255 253 250
114 112 110 108 107 106 100 85 70 56 40 25 12 2 354 349 345 341 338 335 332 331 333 333 331 329 328 330 330 330 329 328 327 324 322 319 315 311 307 304 302 302 302 302 302 303 304 305 305 304 304 303 301 300 298 296 294 293 291 289 288 286 285 283 281 280 278 277 276 274 273 272 269 267 266 264 262 260 258 257 256 255 255 253 251
112 109 106 105 104 99 85 72 60 44 30 17 6 358 352 348 344 341 339 336 335 335 336 334 332 333 334 335 334 333 331 329 328 327 326 323 318 312 307 304 302 302 302 303 305 306 307 307 307 306 305 304 303 302 300 298 296 295 293 291 289 287 285 283 282 280 278 277 276 274 273 271 269 268 266 264 262 261 259 257 255 254 254 253 252
110 108 106 104 99 87 72 61 47 32 21 10 1 356 352 348 345 343 341 339 339 339 338 337 337 339 339 338 336 333 331 329 329 329 328 325 321 314 308 305 304 304 305 307 308 309 310 309 309 308 308 307 306 304 302 301 299 297 295 293 291 289 287 285 283 281 279 277 275 274 273 271 269 268 266 264 262 261 259 257 255 254 253 252 252
108 105 102 99 90 76 60 48 36 25 14 4 359 355 352 349 347 345 342 341 342 342 341 341 342 342 341 339 337 334 333 332 330 329 327 326 323 318 313 309 308 309 310 311 311 312 312 312 312 311 311 310 308 307 306 305 303 301 299 296 294 292 289 287 285 283 281 279 276 274 272 270 269 267 265 264 262 260 259 257 255 253 252 251 251
105 101 96 90 79 64 51 41 29 17 7 2 359 356 353 350 348 345 345 346 346 345 345 345 344 343 341 339 338 337 336 334 331 329 327 326 324 322 319 316 314 314 315 315 314 315 315 315 315 314 313 313 312 311 309 307 305 303 300 298 296 294 291 289 287 285 283 280 278 275 273 270 267 265 264 262 260 259 257 256 254 253 251 250 249
99 92 84 75 64 56 47 34 21 11 5 3 1 358 355 351 348 348 350 351 350 348 348 347 345 343 341 340 340 339 337 334 332 329 328 327 326 325 323 321 320 320 319 319 319 319 319 318 318 318 318 317 315 313 310 308 307 305 302 300 298 295 293 290 288 286 284 281 279 277 273 270 267 264 262 260 258 257 255 254 253 252 251 249 247
88 80 73 65 58 51 39 24 14 8 5 4 1 358 354 352 353 354 355 354 352 351 350 348 346 345 343 342 341 339 337 335 333 332 330 329 329 328 327 326 325 324 323 323 323 322 322 322 322 322 321 318 315 313 312 311 309 307 305 302 300 296 294 291 289 287 285 282 280 278 275 272 268 265 262 260 258 256 254 252 251 250 250 249 247
78 73 68 61 54 42 28 17 11 6 5 4 1 358 356 357 359 358 358 357 355 353 352 350 348 347 345 344 342 340 338 337 335 334 333 333 332 331 330 329 328 327 327 327 326 326 326 327 326 324 321 318 317 315 315 314 312 310 308 305 302 299 297 295 293 290 287 284 282 280 278 275 271 267 264 261 259 256 253 251 249 249 249 248 247
69 66 61 53 43 30 18 13 9 6 5 3 1 359 360 2 2 0 359 359 357 355 354 352 350 349 347 345 343 341 340 339 338 337 336 336 335 335 333 332 331 331 331 330 330 330 330 329 326 323 322 321 321 322 322 320 318 316 313 309 306 303 300 299 296 293 290 287 285 284 282 279 275 271 267 263 260 257 254 251 249 247 247 247 246
60 57 51 40 28 18 11 8 6 5 5 4 2 2 4 4 3 1 0 0 358 356 355 354 352 350 348 346 344 343 342 342 341 340 339 339 338 337 336 335 334 334 334 334 333 332 331 329 327 326 326 329 331 331 329 326 322 319 316 312 310 307 304 301 299 297 295 292 290 287 284 281 278 274 270 266 263 259 255 251 248 247 246 245 245
48 44 34 21 12 8 6 5 4 5 6 5 4 5 5 4 2 1 1 0 358 356 356 354 352 351 349 347 346 346 345 344 343 342 342 341 340 339 338 337 336 337 336 336 335 333 332 331 330 328 331 334 333 331 328 325 321 319 316 314 311 308 305 304 303 301 299 296 293 290 287 283 279 275 270 266 263 260 256 252 248 246 245 244 243
32 27 18 5 1 2 2 3 4 6 6 5 5 5 4 3 1 1 1 359 356 356 356 354 352 351 350 349 349 348 347 346 345 344 344 343 342 341 340 339 339 338 337 337 337 335 335 335 331 327 330 330 328 329 327 325 322 320 318 316 313 310 307 305 303 302 303 304 303 301 299 295 289 281 272 266 261 258 255 252 248 246 244 242 241
18 14 7 358 357 358 359 1 3 4 6 5 4 3 3 1 359 360 359 356 355 356 355 353 353 352 351 351 351 350 348 347 347 346 345 345 344 343 341 340 340 339 339 339 339 338 338 337 331 324 324 324 325 327 327 326 324 322 320 319 317 315 311 306 305 308 313 316 316 313 309 305 300 292 280 269 260 255 252 249 247 245 243 241 239
8 5 1 353 351 353 356 359 360 2 5 5 2 360 359 358 358 358 357 354 354 355 354 354 354 353 352 352 352 351 350 349 348 348 347 347 346 344 342 341 340 340 341 342 342 342 341 339 333 326 323 323 325 325 326 328 326 324 324 323 324 323 317 315 318 321 321 320 319 315 311 306 301 295 289 276 263 254 248 245 243 241 241 240 238
0 359 356 348 346 348 354 357 358 2 5 3 358 357 356 355 355 356 355 353 353 354 354 355 355 353 353 353 353 352 351 350 349 349 350 349 347 344 343 342 342 343 343 344 345 345 344 342 337 333 330 328 327 326 328 329 328 329 329 327 329 327 323 326 328 326 323 321 321 318 312 307 301 294 289 282 269 256 246 240 238 237 236 236 236
356 352 350 345 345 347 350 354 358 2 2 359 356 355 354 352 353 355 353 351 353 354 354 356 355 354 354 354 354 353 352 351 351 352 351 349 347 345 344 344 344 344 344 345 347 348 347 345 341 339 337 333 331 331 331 331 332 336 334 330 330 326 328 332 329 326 324 323 323 318 314 309 303 294 286 279 272 261 248 238 233 232 232 232 234
353 347 347 346 345 346 348 354 359 360 359 356 354 355 352 349 351 353 351 350 353 354 355 356 355 354 355 355 354 354 353 352 353 353 352 350 348 346 346 345 346 346 346 347 350 351 351 349 344 341 339 336 336 337 336 335 336 340 338 333 328 326 329 328 325 325 325 324 322 318 316 314 306 294 283 275 268 261 252 241 231 226 227 228 230
351 345 346 348 347 348 350 355 359 358 356 354 353 354 351 348 350 350 349 351 354 355 356 356 355 354 355 355 355 354 354 354 355 354 352 351 349 347 347 347 347 347 348 349 352 353 353 352 348 344 342 342 344 344 341 339 339 343 344 337 327 325 325 323 325 328 324 322 326 325 320 317 313 300 287 277 266 258 252 244 233 224 221 223 227
351 344 347 350 348 351 354 357 358 356 355 352 352 353 349 347 348 349 350 353 354 355 356 356 355 355 356 356 356 355 355 356 356 354 353 351 349 349 348 348 349 349 350 352 353 354 355 355 352 348 347 348 351 350 346 343 341 344 347 346 339 331 328 330 331 328 325 327 332 329 322 321 321 311 299 286 268 256 250 244 234 225 219 218 222
351 345 348 351 350 352 356 357 356 355 353 351 351 350 346 346 348 350 353 354 355 355 356 356 355 355 356 357 356 356 356 357 357 355 353 352 350 350 349 349 351 351 352 353 355 356 356 356 354 353 351 350 352 352 350 347 344 345 350 355 354 347 342 341 335 332 334 335 335 333 330 331 331 325 313 298 275 255 250 244 231 221 215 213 217
351 347 347 349 350 352 356 357 355 353 350 349 349 347 346 347 349 351 354 354 354 356 356 356 356 356 357 357 357 357 358 358 357 356 354 353 352 351 351 351 352 352 353 355 356 357 358 357 356 356 353 351 353 352 352 352 350 348 351 358 1 357 351 345 339 343 343 338 342 351 353 352 353 348 336 326 307 261 254 247 223 212 208 207 209
350 347 347 347 348 351 354 356 354 351 348 347 348 348 348 349 350 353 354 354 355 356 356 356 356 356 357 357 357 358 359 359 358 356 355 354 353 353 352 353 353 354 355 356 357 359 0 358 357 358 356 354 355 355 353 355 354 350 351 357 1 358 352 349 348 349 345 344 355 7 8 12 15 9 3 8 13 340 271 232 202 196 196 196 196
347 346 346 345 346 348 351 354 353 350 348 347 348 349 349 349 350 353 354 354 355 355 356 356 356 357 358 358 358 359 359 359 358 357 356 355 354 353 353 354 354 355 356 358 359 1 3 1 359 0 359 356 356 355 354 357 358 354 352 355 358 357 354 352 351 349 350 358 8 14 17 25 29 31 35 42 51 56 67 103 152 179 183 182 180
342 342 343 342 342 343 346 349 349 347 346 345 347 348 349 349 350 352 354 354 355 355 356 356 356 358 359 358 359 359 359 359 358 358 357 356 355 354 355 356 355 356 358 359 0 2 5 5 3 3 3 1 358 356 356 2 3 359 355 354 356 359 357 353 351 354 2 11 19 21 25 34 39 44 51 60 67 69 82 100 121 159 168 167 168
334 334 335 336 336 338 340 343 343 342 342 342 343 345 347 347 348 351 353 354 355 355 356 357 357 358 359 359 359 360 360 360 359 359 358 357 356 355 356 357 357 357 359 0 1 3 6 8 6 6 6 6 5 1 2 10 12 6 1 357 357 0 360 358 0 5 12 21 31 35 37 43 45 45 50 57 62 68 82 96 115 142 151 156 163
327 327 328 330 332 332 335 337 336 336 337 338 338 341 343 344 347 351 353 354 355 356 357 358 358 359 359 359 359 0 0 0 360 360 359 358 357 356 357 358 358 359 360 1 2 4 7 10 9 8 9 10 12 12 13 17 15 11 9 8 8 9 8 9 10 10 16 25 34 43 48 50 47 44 48 51 51 61 76 88 110 129 139 150 158
325 324 326 328 329 330 333 335 333 332 333 334 334 336 340 343 346 351 353 354 356 356 357 358 358 358 359 359 360 1 1 1 0 0 359 359 358 357 358 359 359 360 1 2 3 5 8 11 11 11 12 12 14 18 21 21 17 13 12 14 14 15 15 17 18 17 22 29 35 41 51 55 49 44 54 58 57 63 74 88 108 122 134 145 154
324 323 324 325 327 330 334 335 334 332 332 332 332 333 336 340 345 351 353 353 355 356 356 358 358 358 359 360 1 2 2 1 0 0 360 360 359 358 359 360 0 1 2 2 4 7 9 12 13 13 14 15 14 17 20 20 18 13 11 12 14 15 15 18 21 21 25 34 39 41 51 61 56 52 59 64 66 69 77 92 110 119 125 137 145
324 323 323 324 326 331 335 337 336 333 332 331 331 331 333 338 344 349 352 353 355 355 356 358 358 358 360 0 2 3 2 1 1 0 0 0 0 360 360 0 1 2 3 3 5 8 10 12 15 15 16 18 18 18 19 19 18 16 13 9 7 7 8 10 13 18 26 34 38 37 46 65 66 64 66 65 64 70 84 98 112 114 111 127 139
325 323 323 322 325 331 336 338 336 334 331 331 330 329 330 335 342 348 351 353 355 355 356 358 358 359 0 1 2 3 3 2 2 1 1 1 1 1 1 1 2 2 3 4 5 8 11 13 16 17 17 19 21 21 22 23 23 23 20 15 11 8 3 359 358 359 7 17 22 23 38 67 70 69 75 77 70 70 89 106 118 119 111 120 136
325 324 323 323 324 329 334 337 335 332 330 330 330 328 328 333 341 347 350 352 355 356 357 359 359 359 1 1 3 3 3 3 3 2 1 2 2 2 2 2 2 3 4 5 5 8 12 14 17 19 19 19 22 23 24 25 27 29 27 24 23 21 17 14 12 9 8 12 17 26 54 80 73 72 81 87 79 74 91 112 126 130 115 98 121
Height
5802 5802 5802 5803 5803 5803 5804 5804 5804 5804 5804 5803 5803 5803 5804 5804 5805 5805 5805 5805 5805 5804 5804 5804 5804 5804 5803 5803 5802 5802 5801 5800 5800 5799 5798 5798 5797 5796 5795 5794 5793 5793 5792 5791 5790 5789 5789 5788 5787 5787 5786 5785 5785 5784 5784 5783 5782 5782 5781 5781 5780 5780 5779 5779 5779 5778 5778 5778 5778 5777 5777 5777 5777 5776 5776 5776 5776 5777 5777 5778 5778 5778 5778 5778 5779
5801 5801 5801 5802 5802 5802 5802 5802 5802 5803 5803 5803 5802 5803 5803 5803 5804 5804 5804 5804 5803 5803 5803 5803 5803 5802 5802 5801 5801 5800 5800 5799 5798 5797 5797 5796 5795 5794 5793 5792 5791 5790 5789 5789 5788 5787 5786 5786 5785 5784 5783 5783 5782 5781 5781 5780 5779 5778 5778 5777 5777 5776 5776 5775 5775 5775 5774 5774 5774 5774 5773 5773 5772 5772 5772 5772 5772 5773 5773 5773 5774 5774 5774 5774 5775
5799 5799 5799 5800 5801 5800 5800 5801 5801 5801 5802 5802 5802 5802 5803 5803 5803 5803 5803 5802 5802 5802 5802 5802 5801 5801 5800 5800 5799 5799 5798 5797 5796 5795 5794 5793 5792 5791 5791 5790 5789 5788 5787 5787 5786 5785 5784 5783 5782 5782 5781 5780 5779 5778 5778 5777 5776 5775 5775 5774 5773 5773 5772 5772 5771 5771 5771 5771 5770 5770 5770 5769 5768 5768 5768 5768 5768 5768 5769 5769 5769 5770 5769 5770 5771
5798 5798 5798 5799 5799 5799 5799 5800 5800 5801 5801 5801 5802 5802 5803 5803 5802 5802 5801 5801 5801 5801 5801 5801 5800 5799 5799 5799 5798 5797 5796 5795 5794 5793 5792 5792 5791 5790 5789 5788 5787 5786 5785 5785 5784 5783 5782 5781 5780 5779 5778 5777 5777 5776 5775 5774 5773 5772 5772 5771 5770 5770 5769 5768 5768 5768 5767 5767 5767 5766 5765 5765 5764 5764 5764 5764 5764 5764 5764 5765 5765 5766 5765 5766 5767
5796 5796 5797 5798 5798 5798 5799 5799 5800 5800 5801 5801 5802 5802 5802 5802 5801 5801 5800 5800 5800 5800 5800 5799 5798 5798 5798 5797 5797 5796 5795 5794 5793 5792 5791 5790 5789 5788 5787 5786 5785 5785 5784 5783 5782 5781 5780 5779 5778 5777 5776 5775 5774 5773 5772 5772 5771 5770 5769 5768 5767 5767 5766 5765 5765 5764 5764 5763 5763 5762 5761 5761 5760 5760 5760 5760 5760 5760 5760 5761 5761 5761 5762 5762 5762
5795 5795 5796 5797 5797 5798 5799 5799 5800 5800 5801 5801 5801 5801 5801 5800 5800 5800 5800 5800 5800 5799 5798 5798 5797 5797 5797 5796 5795 5794 5794 5793 5792 5791 5790 5789 5787 5787 5785 5785 5784 5783 5782 5781 5780 5779 5778 5777 5776 5775 5774 5773 5772 5771 5770 5769 5768 5767 5766 5765 5764 5764 5763 5762 5762 5761 5760 5760 5759 5758 5757 5757 5756 5756 5756 5756 5756 5756 5756 5756 5757 5757 5757 5758 5758
5795 5795 5796 5796 5797 5798 5799 5799 5799 5800 5800 5800 5800 5800 5800 5800 5800 5800 5799 5799 5799 5798 5797 5796 5796 5796 5795 5795 5794 5793 5792 5791 5790 5789 5788 5787 5786 5785 5784 5783 5782 5781 5780 5779 5778 5777 5775 5774 5773 5772 5771 5770 5769 5768 5767 5766 5765 5764 5763 5762 5761 5760 5760 5759 5758 5757 5756 5756 5755 5754 5754 5753 5752 5752 5752 5753 5752 5751 5752 5752 5753 5753 5753 5753 5754
5794 5795 5796 5796 5797 5798 5798 5799 5799 5799 5799 5799 5800 5800 5800 5800 5799 5799 5798 5798 5798 5797 5796 5795 5795 5795 5794 5794 5793 5792 5791 5790 5789 5788 5787 5786 5785 5783 5782 5781 5780 5779 5777 5776 5775 5774 5773 5772 5771 5770 5769 5767 5766 5765 5764 5763 5762 5760 5759 5758 5758 5757 5756 5755 5754 5753 5752 5751 5751 5750 5750 5749 5748 5748 5748 5748 5748 5747 5748 5748 5749 5749 5749 5749 5749
5794 5795 5795 5796 5797 5797 5798 5798 5798 5798 5799 5799 5799 5799 5799 5799 5798 5798 5797 5797 5797 5796 5795 5795 5795 5794 5793 5793 5792 5791 5790 5789 5788 5787 5786 5784 5783 5782 5781 5780 5778 5777 5775 5774 5773 5772 5771 5769 5768 5766 5765 5764 5763 5762 5761 5759 5758 5757 5755 5755 5754 5753 5752 5751 5750 5749 5748 5747 5746 5746 5746 5745 5744 5743 5743 5744 5744 5744 5744 5744 5745 5745 5745 5745 5745
5794 5794 5795 5796 5796 5797 5797 5798 5798 5798 5799 5798 5798 5798 5798 5798 5797 5797 5797 5796 5796 5795 5795 5794 5794 5793 5793 5792 5791 5790 5789 5788 5787 5786 5784 5783 5782 5780 5779 5778 5776 5775 5773 5772 5771 5770 5768 5767 5765 5764 5762 5761 5760 5759 5757 5756 5755 5753 5751 5750 5750 5749 5748 5747 5746 5745 5743 5743 5742 5742 5741 5740 5740 5739 5738 5739 5740 5740 5739 5740 5740 5740 5741 5741 5741
5794 5794 5795 5796 5796 5797 5797 5797 5798 5798 5798 5798 5798 5798 5797 5797 5797 5796 5796 5796 5795 5795 5794 5794 5793 5793 5792 5791 5790 5789 5788 5787 5786 5785 5783 5782 5780 5779 5778 5777 5775 5773 5771 5769 5768 5767 5766 5764 5762 5761 5759 5758 5756 5755 5754 5752 5751 5749 5748 5746 5745 5744 5743 5742 5741 5740 5739 5738 5737 5737 5736 5735 5735 5734 5733 5734 5735 5735 5735 5735 5736 5736 5737 5737 5737
5794 5794 5795 5796 5796 5797 5797 5797 5798 5798 5797 5797 5797 5797 5797 5797 5797 5796 5796 5795 5795 5794 5794 5794 5793 5792 5791 5790 5789 5788 5787 5786 5785 5783 5782 5780 5779 5777 5776 5775 5773 5771 5769 5767 5766 5764 5763 5761 5760 5758 5756 5754 5753 5751 5750 5748 5747 5746 5744 5742 5741 5740 5739 5738 5736 5735 5734 5733 5732 5731 5730 5730 5729 5728 5729 5730 5730 5730 5730 5730 5731 5731 5732 5733 5733
5794 5795 5795 5796 5797 5797 5797 5797 5797 5797 5797 5797 5797 5797 5797 5797 5797 5796 5796 5795 5795 5794 5794 5793 5793 5792 5791 5790 5788 5787 5786 5785 5783 5782 5780 5779 5777 5775 5774 5773 5771 5769 5767 5765 5763 5762 5760 5759 5757 5755 5753 5751 5749 5748 5746 5744 5743 5741 5740 5738 5737 5735 5734 5733 5732 5730 5729 5728 5727 5726 5725 5724 5724 5723 5724 5724 5724 5724 5724 5725 5726 5726 5727 5728 5728
5795 5795 5796 5796 5797 5797 5797 5797 5797 5797 5797 5797 5797 5797 5797 5797 5797 5796 5796 5796 5795 5795 5794 5793 5792 5791 5790 5789 5787 5786 5784 5783 5782 5780 5779 5777 5775 5773 5772 5770 5769 5767 5765 5763 5761 5759 5757 5756 5754 5752 5750 5748 5746 5744 5742 5741 5739 5738 5736 5735 5733 5731 5730 5728 5727 5725 5724 5723 5721 5720 5720 5719 5718 5718 5719 5719 5718 5719 5719 5720 5720 5721 5722 5723 5723
5795 5795 5796 5796 5797 5797 5797 5796 5797 5797 5797 5797 5797 5797 5797 5797 5797 5797 5796 5796 5795 5795 5794 5792 5791 5790 5789 5787 5786 5785 5783 5782 5780 5779 5777 5775 5773 5771 5769 5768 5766 5764 5762 5760 5759 5757 5755 5753 5751 5749 5747 5745 5743 5741 5739 5737 5735 5734 5732 5730 5728 5727 5725 5723 5722 5720 5718 5717 5716 5715 5714 5713 5712 5713 5714 5713 5713 5713 5713 5714 5715 5716 5716 5717 5718
5795 5795 5796 5796 5796 5797 5797 5797 5797 5797 5797 5797 5798 5798 5798 5798 5798 5797 5797 5796 5795 5794 5793 5792 5790 5789 5788 5786 5785 5784 5782 5780 5779 5777 5775 5773 5771 5769 5767 5765 5764 5762 5760 5758 5756 5754 5752 5750 5748 5746 5744 5742 5739 5737 5735 5733 5731 5729 5727 5726 5724 5722 5720 5718 5716 5714 5713 5711 5710 5709 5708 5707 5706 5708 5708 5707 5707 5707 5708 5708 5709 5710 5711 5712 5713
5795 5796 5796 5796 5797 5797 5797 5797 5798 5798 5798 5798 5798 5798 5798 5798 5798 5797 5797 5796 5794 5793 5792 5791 5790 5788 5787 5785 5784 5782 5781 5779 5777 5775 5773 5771 5769 5767 5765 5763 5761 5759 5757 5755 5753 5751 5749 5747 5745 5742 5740 5738 5736 5734 5731 5729 5727 5725 5722 5720 5718 5716 5714 5712 5711 5709 5706 5705 5704 5703 5702 5701 5701 5702 5701 5700 5701 5701 5702 5702 5703 5704 5705 5706 5707
5796 5796 5797 5797 5797 5797 5798 5798 5798 5799 5799 5799 5799 5799 5799 5798 5798 5797 5796 5795 5794 5792 5791 5790 5789 5787 5786 5784 5782 5781 5779 5778 5776 5774 5772 5769 5767 5765 5763 5760 5758 5756 5754 5752 5750 5748 5746 5744 5741 5739 5737 5734 5732 5729 5727 5724 5722 5719 5717 5714 5712 5710 5708 5706 5704 5702 5700 5699 5698 5696 5695 5694 5695 5695 5694 5694 5695 5695 5695 5696 5697 5698 5700 5701 5702
5797 5797 5797 5798 5798 5798 5799 5799 5799 5799 5800 5799 5799 5799 5799 5798 5798 5797 5796 5794 5793 5791 5790 5789 5788 5787 5785 5783 5781 5780 5778 5776 5774 5772 5770 5767 5765 5763 5760 5758 5756 5754 5752 5749 5747 5745 5743 5740 5738 5735 5733 5730 5727 5725 5722 5719 5716 5714 5711 5708 5706 5703 5701 5699 5697 5695 5693 5692 5691 5690 5689 5688 5689 5688 5687 5688 5688 5689 5689 5690 5691 5692 5693 5695 5696
5797 5798 5798 5799 5799 5799 5799 5800 5800 5800 5800 5800 5800 5800 5799 5799 5798 5797 5795 5794 5792 5791 5790 5789 5787 5786 5784 5782 5780 5778 5776 5774 5772 5770 5767 5765 5762 5760 5757 5755 5753 5751 5749 5746 5744 5742 5739 5737 5734 5731 5728 5726 5723 5720 5717 5713 5710 5707 5705 5702 5699 5697 5694 5692 5690 5688 5687 5685 5684 5682 5682 5681 5681 5680 5680 5681 5681 5682 5682 5683 5684 5685 5687 5688 5690
5798 5799 5799 5800 5800 5800 5800 5801 5801 5801 5801 5801 5801 5800 5799 5798 5797 5796 5795 5793 5792 5791 5789 5788 5786 5784 5782 5781 5779 5777 5774 5772 5770 5767 5764 5762 5759 5757 5755 5752 5750 5748 5746 5743 5741 5738 5736 5733 5730 5727 5724 5720 5717 5714 5711 5707 5704 5701 5698 5695 5692 5690 5687 5685 5683 5681 5679 5678 5676 5675 5674 5674 5673 5673 5673 5673 5673 5674 5675 5677 5678 5679 5680 5681 5683
5799 5800 5800 5801 5801 5801 5801 5802 5802 5802 5801 5801 5800 5800 5799 5798 5797 5795 5794 5793 5791 5790 5789 5787 5785 5783 5781 5780 5777 5775 5773 5770 5767 5765 5762 5759 5756 5754 5752 5749 5747 5745 5742 5740 5737 5734 5731 5728 5725 5722 5719 5715 5711 5708 5704 5701 5698 5694 5691 5688 5685 5682 5680 5677 5675 5673 5671 5670 5668 5667 5666 5666 5665 5665 5666 5666 5666 5667 5668 5669 5671 5672 5673 5674 5676
5800 5801 5801 5802 5802 5802 5802 5802 5802 5802 5801 5801 5800 5799 5798 5797 5796 5795 5794 5792 5791 5790 5788 5786 5784 5782 5780 5778 5776 5773 5771 5768 5765 5762 5759 5756 5754 5751 5749 5746 5744 5741 5739 5736 5733 5730 5727 5723 5720 5717 5713 5709 5706 5702 5698 5695 5691 5687 5684 5680 5677 5674 5671 5669 5666 5664 5662 5661 5659 5658 5657 5657 5657 5657 5657 5658 5659 5659 5661 5662 5663 5665 5667 5668 5669
5802 5802 5802 5803 5803 5803 5803 5803 5802 5802 5802 5801 5800 5799 5798 5797 5796 5795 5794 5792 5791 5789 5787 5785 5783 5781 5778 5776 5774 5771 5768 5766 5763 5760 5757 5754 5751 5748 5745 5743 5740 5738 5735 5732 5729 5726 5722 5719 5715 5712 5708 5704 5700 5696 5692 5688 5684 5680 5676 5672 5669 5665 5662 5659 5656 5654 5653 5651 5650 5649 5648 5648 5648 5648 5649 5650 5651 5652 5653 5655 5656 5658 5659 5661 5663
5803 5803 5803 5803 5803 5803 5803 5803 5803 5802 5802 5801 5800 5799 5798 5797 5796 5795 5793 5792 5790 5788 5786 5784 5781 5779 5777 5774 5772 5769 5766 5763 5760 5757 5754 5751 5748 5745 5742 5740 5737 5734 5731 5728 5725 5722 5718 5714 5711 5707 5703 5698 5694 5689 5685 5681 5676 5672 5668 5664 5660 5657 5653 5650 5648 5645 5643 5642 5640 5640 5639 5639 5639 5639 5640 5641 5642 5644 5645 5647 5649 5650 5652 5654 5656
5804 5804 5804 5804 5804 5804 5804 5804 5803 5803 5802 5801 5800 5799 5798 5797 5796 5794 5793 5791 5789 5787 5785 5782 5780 5777 5775 5772 5769 5767 5764 5761 5758 5755 5752 5748 5745 5742 5739 5737 5734 5731 5728 5724 5721 5718 5714 5710 5706 5702 5697 5693 5688 5683 5679 5674 5670 5665 5661 5657 5653 5650 5646 5643 5640 5637 5635 5633 5632 5631 5630 5631 5631 5631 5632 5632 5634 5635 5637 5639 5641 5643 5644 5647 5650
5804 5804 5804 5804 5805 5804 5804 5804 5803 5803 5802 5801 5800 5799 5798 5797 5796 5794 5792 5790 5788 5786 5784 5781 5779 5776 5773 5770 5767 5764 5762 5759 5755 5752 5749 5746 5742 5740 5737 5734 5731 5728 5724 5721 5718 5714 5710 5706 5701 5697 5692 5687 5682 5677 5673 5668 5664 5659 5655 5651 5647 5643 5640 5637 5634 5631 5629 5627 5625 5624 5623 5622 5622 5623 5623 5624 5625 5627 5629 5631 5633 5635 5637 5639 5642
5805 5805 5805 5805 5805 5805 5804 5804 5803 5803 5802 5801 5800 5799 5798 5797 5795 5793 5791 5789 5787 5785 5783 5780 5777 5775 5772 5768 5765 5763 5759 5756 5753 5750 5746 5743 5740 5737 5734 5731 5728 5725 5721 5718 5714 5710 5706 5701 5697 5692 5687 5682 5677 5673 5668 5664 5659 5655 5650 5646 5642 5638 5634 5631 5628 5625 5623 5621 5620 5618 5617 5616 5615 5615 5616 5616 5617 5618 5620 5622 5624 5627 5629 5632 5635
5806 5806 5806 5806 5805 5805 5805 5804 5804 5803 5802 5801 5800 5799 5798 5796 5794 5793 5791 5789 5786 5784 5781 5779 5776 5773 5770 5767 5764 5761 5757 5754 5751 5747 5744 5741 5738 5735 5731 5728 5725 5722 5718 5714 5710 5706 5702 5698 5693 5688 5683 5678 5673 5669 5664 5659 5655 5650 5645 5641 5636 5632 5629 5626 5623 5621 5619 5617 5615 5614 5612 5610 5610 5609 5609 5609 5610 5611 5612 5614 5616 5619 5621 5624 5627
5807 5807 5807 5806 5806 5805 5805 5804 5804 5803 5802 5801 5800 5799 5797 5796 5794 5792 5790 5788 5786 5783 5780 5777 5774 5771 5768 5765 5762 5759 5755 5752 5749 5745 5742 5739 5736 5732 5729 5726 5722 5719 5715 5711 5707 5703 5699 5694 5689 5684 5679 5674 5670 5665 5660 5655 5650 5646 5641 5636 5632 5628 5625 5622 5619 5617 5615 5612 5611 5609 5607 5605 5604 5604 5603 5603 5604 5604 5605 5606 5608 5611 5614 5617 5620
5807 5807 5807 5807 5806 5806 5805 5805 5804 5803 5802 5801 5800 5798 5797 5795 5793 5791 5789 5787 5784 5782 5779 5776 5773 5770 5767 5764 5760 5757 5754 5750 5747 5743 5740 5737 5733 5730 5727 5723 5720 5716 5712 5708 5704 5700 5695 5690 5685 5680 5675 5671 5666 5661 5657 5651 5646 5641 5636 5631 5627 5624 5621 5619 5616 5613 5610 5608 5606 5604 5602 5600 5599 5598 5598 5598 5598 5598 5599 5599 5601 5604 5606 5609 5614
5808 5808 5807 5807 5806 5806 5805 5805 5804 5803 5802 5801 5800 5798 5797 5795 5793 5791 5789 5786 5783 5781 5778 5775 5772 5769 5765 5762 5758 5755 5752 5748 5745 5741 5738 5735 5731 5728 5724 5721 5717 5714 5710 5706 5702 5697 5691 5686 5681 5676 5672 5667 5662 5658 5653 5647 5642 5636 5631 5626 5622 5619 5617 5614 5612 5609 5607 5604 5602 5600 5597 5595 5594 5592 5592 5592 5592 5592 5593 5594 5595 5597 5600 5603 5607
5808 5808 5807 5807 5806 5806 5805 5805 5804 5803 5802 5801 5799 5798 5796 5794 5792 5790 5788 5785 5782 5780 5777 5774 5771 5767 5764 5760 5757 5754 5750 5747 5743 5740 5736 5733 5729 5726 5722 5719 5715 5712 5708 5704 5699 5694 5688 5682 5677 5673 5668 5663 5659 5654 5649 5643 5638 5632 5626 5621 5618 5615 5612 5610 5608 5606 5603 5601 5598 5596 5594 5591 5589 5587 5586 5586 5586 5586 5587 5588 5590 5592 5594 5597 5601
5808 5808 5807 5807 5807 5806 5806 5805 5804 5803 5801 5800 5799 5797 5796 5794 5791 5789 5787 5784 5782 5779 5776 5773 5769 5766 5762 5759 5756 5752 5749 5745 5742 5738 5735 5731 5728 5724 5721 5717 5713 5710 5705 5701 5696 5691 5685 5679 5673 5669 5665 5661 5656 5651 5646 5640 5634 5628 5621 5617 5614 5611 5608 5606 5605 5602 5600 5598 5595 5592 5590 5587 5585 5583 5581 5580 5579 5580 5581 5583 5585 5587 5589 5592 5596
5809 5808 5808 5807 5807 5806 5805 5804 5803 5802 5801 5799 5798 5797 5795 5793 5791 5789 5786 5783 5781 5778 5775 5772 5768 5765 5761 5758 5754 5751 5747 5744 5740 5737 5733 5730 5726 5723 5719 5715 5711 5707 5703 5699 5694 5688 5682 5676 5671 5666 5662 5658 5653 5648 5643 5637 5630 5624 5618 5614 5611 5609 5606 5604 5602 5599 5597 5595 5592 5589 5586 5583 5580 5578 5576 5575 5574 5573 5575 5577 5580 5582 5585 5587 5591
5809 5808 5808 5807 5807 5806 5805 5804 5803 5802 5800 5799 5797 5796 5794 5792 5790 5788 5786 5783 5780 5778 5774 5770 5767 5763 5760 5756 5753 5750 5746 5743 5739 5735 5732 5728 5725 5721 5717 5713 5709 5705 5701 5697 5692 5686 5680 5674 5668 5664 5660 5655 5650 5645 5640 5634 5628 5622 5616 5612 5610 5607 5605 5603 5600 5598 5595 5592 5589 5586 5583 5580 5577 5574 5572 5570 5569 5568 5569 5571 5574 5577 5580 5583 5586
5809 5809 5808 5807 5807 5806 5805 5804 5802 5801 5800 5798 5797 5795 5794 5792 5790 5787 5785 5782 5780 5776 5773 5769 5766 5762 5759 5755 5752 5749 5745 5742 5738 5734 5730 5727 5723 5720 5716 5712 5708 5704 5699 5694 5690 5684 5678 5672 5666 5662 5658 5653 5648 5643 5637 5631 5626 5620 5615 5611 5608 5606 5604 5602 5599 5596 5593 5590 5587 5583 5580 5577 5573 5570 5568 5566 5565 5564 5564 5566 5569 5572 5576 5579 5583
5809 5809 5808 5807 5806 5805 5804 5803 5802 5801 5799 5798 5796 5795 5793 5791 5789 5787 5784 5781 5778 5775 5771 5768 5765 5761 5758 5755 5751 5748 5744 5740 5736 5733 5729 5726 5722 5718 5714 5710 5706 5702 5697 5692 5687 5682 5676 5670 5664 5660 5655 5651 5646 5641 5635 5630 5625 5620 5614 5610 5607 5605 5602 5600 5597 5594 5590 5587 5584 5581 5578 5574 5570 5566 5564 5562 5561 5561 5561 5562 5564 5568 5572 5576 5580
5809 5809 5808 5807 5806 5805 5804 5802 5801 5800 5799 5797 5795 5794 5792 5791 5789 5787 5784 5780 5777 5774 5770 5767 5764 5760 5757 5754 5750 5747 5743 5739 5735 5732 5728 5725 5721 5717 5713 5709 5705 5701 5696 5691 5686 5680 5674 5669 5663 5658 5653 5648 5644 5639 5634 5629 5624 5619 5614 5609 5605 5603 5601 5599 5595 5592 5588 5585 5582 5579 5575 5571 5567 5563 5561 5558 5557 5558 5558 5559 5561 5564 5568 5573 5577
5809 5808 5807 5807 5805 5804 5803 5802 5801 5799 5798 5797 5795 5793 5792 5790 5788 5786 5782 5779 5776 5773 5770 5766 5763 5759 5756 5753 5750 5746 5742 5738 5734 5731 5727 5724 5720 5716 5712 5708 5704 5700 5695 5690 5685 5679 5673 5667 5662 5657 5651 5647 5642 5638 5633 5628 5623 5619 5614 5609 5605 5602 5599 5597 5594 5590 5587 5584 5581 5577 5573 5569 5565 5561 5558 5556 5555 5556 5556 5557 5559 5562 5566 5570 5575
5809 5808 5807 5806 5805 5804 5803 5801 5800 5799 5798 5796 5795 5793 5791 5789 5787 5784 5781 5778 5775 5772 5769 5766 5762 5759 5756 5753 5749 5745 5742 5737 5734 5730 5727 5723 5719 5715 5712 5707 5703 5699 5695 5690 5684 5679 5673 5666 5661 5656 5651 5646 5641 5636 5631 5627 5622 5617 5613 5609 5605 5602 5599 5596 5592 5589 5586 5583 5580 5576 5572 5568 5564 5560 5557 5555 5554 5555 5555 5556 5558 5561 5564 5568 5573
5808 5807 5807 5806 5804 5803 5802 5801 5800 5798 5797 5796 5794 5792 5790 5788 5786 5783 5780 5778 5774 5771 5768 5765 5761 5758 5755 5752 5748 5745 5741 5737 5733 5730 5726 5723 5719 5715 5711 5707 5703 5699 5694 5690 5684 5679 5672 5666 5660 5655 5650 5645 5640 5635 5630 5625 5621 5617 5613 5609 5605 5601 5598 5595 5592 5589 5586 5583 5580 5576 5572 5568 5564 5560 5557 5556 5555 5555 5555 5556 5557 5560 5564 5568 5572
5808 5807 5806 5805 5804 5803 5802 5800 5799 5798 5796 5795 5793 5791 5789 5787 5785 5782 5780 5777 5774 5771 5768 5764 5761 5758 5755 5751 5748 5744 5740 5737 5733 5729 5726 5722 5718 5715 5711 5707 5703 5699 5695 5690 5685 5679 5673 5666 5660 5655 5649 5644 5639 5634 5629 5625 5621 5617 5613 5609 5605 5602 5598 5595 5592 5590 5587 5584 5580 5577 5573 5569 5565 5562 5559 5557 5556 5555 5556 5557 5559 5561 5564 5568 5572
5807 5806 5806 5804 5803 5802 5801 5800 5798 5797 5795 5794 5792 5790 5788 5786 5784 5782 5779 5776 5773 5770 5767 5764 5761 5757 5754 5751 5747 5744 5740 5736 5733 5729 5725 5722 5718 5715 5711 5707 5703 5699 5695 5690 5685 5680 5674 5667 5661 5656 5650 5644 5639 5633 5629 5625 5620 5617 5613 5609 5606 5602 5599 5596 5594 5591 5588 5584 5581 5578 5575 5570 5567 5564 5562 5560 5559 5558 5558 5558 5560 5563 5565 5569 5573
5807 5806 5805 5804 5802 5801 5800 5799 5797 5796 5794 5793 5791 5789 5787 5785 5783 5781 5779 5776 5773 5770 5767 5763 5760 5756 5753 5750 5747 5743 5740 5736 5732 5729 5725 5721 5718 5714 5710 5706 5703 5699 5695 5690 5685 5680 5675 5669 5663 5657 5651 5645 5639 5633 5628 5625 5621 5617 5614 5610 5607 5604 5600 5597 5594 5592 5589 5586 5582 5579 5576 5572 5569 5568 5565 5563 5562 5561 5561 5561 5562 5565 5568 5571 5575
5806 5805 5804 5803 5802 5800 5799 5798 5797 5795 5793 5792 5790 5788 5787 5785 5783 5781 5778 5775 5772 5768 5765 5762 5759 5755 5753 5750 5746 5743 5739 5736 5732 5728 5725 5721 5717 5714 5710 5706 5702 5699 5695 5690 5686 5681 5676 5670 5664 5658 5652 5646 5640 5634 5629 5625 5622 5618 5615 5611 5608 5604 5601 5598 5595 5592 5590 5587 5584 5581 5578 5574 5573 5571 5569 5567 5566 5565 5564 5564 5566 5569 5571 5573 5576
5805 5805 5803 5802 5801 5800 5798 5797 5796 5794 5793 5791 5789 5788 5786 5784 5782 5780 5777 5774 5771 5768 5765 5762 5759 5755 5752 5750 5746 5743 5739 5736 5732 5728 5725 5721 5717 5714 5710 5706 5702 5698 5695 5691 5686 5681 5676 5671 5665 5658 5652 5647 5641 5636 5631 5627 5623 5620 5616 5612 5608 5605 5602 5599 5596 5593 5591 5589 5586 5583 5581 5577 5576 5575 5572 5571 5571 5569 5568 5568 5570 5572 5574 5576 5578
5805 5804 5803 5801 5800 5799 5798 5796 5795 5793 5791 5790 5788 5787 5785 5783 5781 5779 5776 5773 5770 5768 5765 5762 5759 5755 5752 5749 5746 5742 5739 5735 5732 5728 5725 5721 5717 5714 5710 5706 5702 5698 5695 5691 5687 5682 5677 5672 5666 5660 5654 5648 5642 5637 5632 5628 5625 5621 5617 5613 5609 5606 5603 5600 5597 5594 5592 5590 5588 5585 5583 5580 5579 5578 5576 5575 5574 5573 5572 5572 5573 5575 5577 5579 5581
5804 5803 5802 5801 5799 5798 5797 5795 5793 5792 5790 5789 5787 5786 5784 5782 5780 5778 5776 5773 5770 5767 5765 5761 5758 5755 5752 5749 5746 5742 5739 5735 5732 5728 5725 5721 5717 5714 5710 5706 5702 5699 5695 5691 5687 5683 5678 5673 5668 5662 5656 5651 5645 5640 5635 5630 5626 5622 5618 5614 5611 5607 5604 5601 5598 5595 5593 5591 5589 5587 5585 5583 5581 5581 5579 5578 5577 5576 5575 5576 5577 5579 5580 5582 5584
5804 5803 5801 5800 5798 5797 5796 5794 5792 5790 5789 5788 5786 5784 5783 5781 5779 5778 5775 5773 5770 5767 5764 5761 5758 5755 5752 5749 5745 5742 5738 5735 5732 5728 5725 5721 5717 5714 5710 5706 5702 5699 5695 5692 5688 5684 5680 5675 5669 5664 5659 5654 5649 5643 5638 5634 5629 5625 5621 5617 5613 5609 5604 5601 5598 5595 5593 5591 5590 5588 5587 5585 5584 5583 5582 5582 5581 5579 5579 5579 5580 5581 5582 5585 5588
5803 5802 5800 5799 5798 5796 5795 5793 5791 5789 5788 5787 5785 5783 5782 5780 5778 5777 5775 5772 5770 5767 5764 5761 5757 5754 5751 5748 5745 5742 5738 5735 5732 5728 5725 5721 5717 5714 5710 5706 5702 5699 5696 5692 5689 5685 5681 5676 5671 5666 5661 5656 5651 5646 5642 5637 5633 5629 5625 5621 5616 5611 5606 5602 5598 5595 5593 5591 5590 5589 5588 5587 5587 5586 5585 5585 5584 5583 5583 5583 5584 5583 5584 5587 5590